Regional Weather Roundup
Issued by NWS Sterling, VA

Home | Current Version | Previous Version | Graphics & Text | Print | Product List | Glossary On
Versions: 1 2 3 4 5 6 7 8 9 10 11 12 13 14 15 16 17 18 19 20 21 22 23 24 25 26 27 28 29 30 31 32 33 34 35 36 37 38 39 40 41 42 43 44 45 46 47 48 49
000
ASUS41 KLWX 310910
RWRLWX

REGIONAL WEATHER ROUNDUP
NATIONAL WEATHER SERVICE BALTIMORE MD/WASHINGTON DC
500 AM EDT MON AUG 31 2015

Note: "FAIR" indicates few or no clouds below 12,000 feet
with no significant weather and/or obstructions to visibility.
 TC=TEMPERATURE CELSIUS

 * =Non NWS site. Station does not report precipitation (e.g. rain,
    snow, etc.), thunder, or fog.

DCZ001-MDZ009-015-VAZ040>042-051-053>054-311000-
WASHINGTON METRO

CITY           SKY/WX    TMP DP  RH WIND       PRES   REMARKS
WASHINGTON NAT CLOUDY    75  67  76 S5        30.07S
DULLES         CLOUDY    73  66  78 S5        30.07S
ANDREWS AFB    CLOUDY    74  66  74 SW8       30.06S
FT BELVOIR     CLOUDY    71  68  90 CALM      30.07R
QUANTICO       CLOUDY    74  64  71 SW6       30.08S
COLLEGE PARK*  CLOUDY    75  66  73 CALM      30.06R
LEESBURG*      CLOUDY    73  72  94 S7        30.08S
MANASSAS*      CLOUDY    72  70  94 CALM      30.07S
GAITHERSBURG*  CLOUDY    72  64  78 CALM      30.11S

$$

MDZ006>007-011-014-311000-
BALTIMORE METRO

CITY           SKY/WX    TMP DP  RH WIND       PRES   REMARKS
BWI AIRPORT    CLOUDY    75  65  70 SW3       30.05S
MD SCIENCE CTR   N/A     77  66  68 MISG      30.05S
MARTIN STATE   LGT RAIN  75  70  83 S3        30.06S
ANNAPOLIS      CLOUDY    75  64  68 CALM      30.05S

$$

MDZ012-015-019>023-311000-
MARYLAND EASTERN SHORE

CITY           SKY/WX    TMP DP  RH WIND       PRES   REMARKS
OCEAN CITY     CLOUDY    75  69  81 SW6       30.08F
SALISBURY      CLOUDY    71  68  90 CALM      30.08S
BAY BRIDGE AP*   N/A     77  64  65 S5        30.05F
CAMBRIDGE*     CLOUDY    77  68  73 CALM      30.07S

$$

MDZ017>025-311000-
SOUTHERN MARYLAND

CITY           SKY/WX    TMP DP  RH WIND       PRES   REMARKS
PATUXENT RIVER CLOUDY    75  65  70 SW12      30.07S
ST INIGOES     CLOUDY    74  69  85 S5        30.07S
LEONARDTOWN*   CLOUDY    73  64  73 CALM      30.09S

$$

MDZ003>005-311000-
NORTH CENTRAL MARYLAND

CITY           SKY/WX    TMP DP  RH WIND       PRES   REMARKS
FREDERICK*     CLOUDY    72  70  94 CALM      30.09S
HAGERSTOWN APT CLOUDY    74  65  73 CALM      30.08R
WESTMINSTER*   CLOUDY    73  66  78 SW3       30.08S

$$

MDZ501>502-311000-
WESTERN MARYLAND

CITY           SKY/WX    TMP DP  RH WIND       PRES   REMARKS
OAKLAND*       CLOUDY    63  61  94 W3        30.19S
CUMBERLAND*    CLOUDY    70  66  88 CALM      30.13S

$$

VAZ025>031-311000-
SHENANDOAH VALLEY

CITY           SKY/WX    TMP DP  RH WIND       PRES   REMARKS
WINCHESTER*    CLOUDY    73  63  68 CALM      30.08S
FRONT ROYAL*   PTSUNNY   72  64  78 S3        30.08S
LURAY*         CLOUDY    70  64  83 CALM      30.10S
NEW MARKET*    CLOUDY    68  66  93 CALM      30.09F
STAUNTON*      CLOUDY    71  65  81 CALM      30.13S
WAYNESBORO*    CLOUDY    69  61  75 CALM      30.12F

$$

WVZ021-048>050-054>055-311000-
EASTERN WEST VIRGINIA PANHANDLE

CITY           SKY/WX    TMP DP  RH WIND       PRES   REMARKS
MARTINSBURG    CLOUDY    70  64  81 CALM      30.08S
PETERSBURG*    CLOUDY    67  66  99 CALM      30.12S FOG

$$

VAZ036>039-050-311000-
CENTRAL FOOTHILLS

CITY           SKY/WX    TMP DP  RH WIND       PRES   REMARKS
CHARLOTTESVILL CLOUDY    73  65  75 SW3       30.09S
CULPEPER*      CLOUDY    69  67  93 CALM      30.08S
ORANGE*        CLOUDY    70  68  94 CALM      30.10R
GORDONSVILLE*  FAIR      69  67  93 CALM      30.08S
WARRENTON*     CLOUDY    70  68  93 CALM      30.07S

$$

VAZ055>057-311000-
NORTH AND CENTRAL PIEDMONT

CITY           SKY/WX    TMP DP  RH WIND       PRES   REMARKS
FREDERICKSBRG* CLOUDY    75  66  73 CALM      30.07S
STAFFORD*      CLOUDY    69  65  88 SE5       30.11S

$$

NCZ024-NYZ072-PAZ021-071-VAZ022-071-311000-
OTHER REGIONAL OBSERVATIONS

CITY           SKY/WX    TMP DP  RH WIND       PRES   REMARKS
NEW YORK CITY  MOCLDY    76  67  73 VRB5      30.04S
PHILADELPHIA   CLOUDY    77  66  68 SW9       30.05R
PITTSBURGH     MOCLDY    68  64  87 S3        30.09R
ROANOKE        LGT RAIN  69  66  90 CALM      30.14F
RICHMOND       CLOUDY    76  66  71 SW6       30.09F
RALEIGH        LGT RAIN  69  67  93 CALM      30.12R

$$

ANZ530>537-311000-
MARINE OBSERVATIONS

STATION/POSITION TIME  TEMP    WIND        PRES
                       AIR SEA DIR/SP/G
                 (UTC) (F)     (DEG/KT/KT) (MB)
THOMAS PT LIGHT  0800   77 78  210/ 13/ 14 1018.2

$$




USA.gov is the U.S. government's official web portal to all federal, state and local government web resources and services.